Location: Unspecified
(0.0000°N, 0.0000°E)
Time: 05:35:11
(UTC+01:00)

Vanguard 1 Rocket - Visible Passes

Search period start: 13 February 2016 00:00
Search period end: 23 February 2016 00:00
Orbit: 650 x 4227 km, 34.3° (Epoch: 11 February)

Date Brightness Start Highest point End Pass type
(mag) Time Alt. Az. Time Alt. Az. Time Alt. Az.
13 Feb 10.5 04:13:39 25° N 04:19:50 32° NE 04:38:36 10° E visible
13 Feb 10.6 06:32:25 10° NW 06:50:43 84° NE 07:17:33 10° SE visible
13 Feb 7.9 19:32:04 10° WSW 19:38:01 47° NW 19:42:19 10° NE visible
14 Feb 10.9 03:06:46 17° NE 03:06:46 17° NE 03:16:44 10° ENE visible
14 Feb 10.4 05:24:05 21° NNW 05:36:17 61° NE 06:01:18 10° ESE visible
15 Feb 10.2 04:17:12 32° N 04:22:47 39° NE 04:43:08 10° ESE visible
15 Feb 10.5 06:35:33 10° NW 06:53:28 84° SW 07:20:20 10° SE visible
15 Feb 8.8 19:35:56 10° W 19:41:10 28° NW 19:45:06 10° NNE visible
16 Feb 10.7 03:10:22 22° NE 03:10:22 22° NE 03:22:44 10° E visible
16 Feb 10.2 05:27:41 25° NW 05:38:59 73° NE 06:04:30 10° ESE visible
17 Feb 9.9 04:20:51 40° N 04:25:33 49° NE 04:47:06 10° ESE visible
17 Feb 10.5 06:38:55 10° WNW 06:56:22 71° SW 07:22:56 10° SE visible
17 Feb 9.2 19:40:27 10° W 19:44:17 17° NW 19:47:24 10° N visible
18 Feb 10.5 03:14:01 28° NE 03:14:01 28° NE 03:27:55 10° E visible
18 Feb 10.0 05:31:21 29° NW 05:41:45 86° NE 06:07:24 10° SE visible
19 Feb 9.6 04:24:32 51° N 04:28:17 60° NE 04:50:37 10° ESE visible
19 Feb 10.6 06:42:31 10° WNW 06:59:31 59° SSW 07:25:25 10° SE visible
20 Feb 10.3 03:17:44 35° ENE 03:17:44 35° ENE 03:32:26 10° ESE visible
20 Feb 9.9 05:35:03 31° WNW 05:44:40 80° SW 06:10:03 10° SE visible
21 Feb 11.2 02:10:54 12° ENE 02:10:54 12° ENE 02:12:34 10° E visible
21 Feb 9.4 04:28:13 63° NNW 04:31:04 74° NE 04:53:44 10° ESE visible
21 Feb 10.6 06:46:24 10° W 07:02:56 49° SSW 07:27:49 10° SE visible
22 Feb 10.0 03:21:24 43° ENE 03:21:24 43° ENE 03:36:23 10° ESE visible
22 Feb 9.8 05:38:44 31° WNW 05:47:48 66° SW 06:12:31 10° SE visible
